GFSCGP_850_temp_318.txt.gz
Temp
11 11 12 13 15 17 17 16 16 17 15 18 18 19 16 14 15 17 16 13 12 13 14 13 13 12 12 12 13 12 12 12 12 12 11 11 11 11 11 10 10 10 10 10
9 11 13 14 13 14 15 16 16 13 14 17 17 19 17 13 16 16 15 13 12 12 13 12 12 12 12 12 13 12 12 11 11 12 11 11 11 11 11 11 10 10 10 10
10 12 12 12 12 13 15 16 15 16 14 15 16 18 15 14 13 15 15 15 14 13 13 12 12 12 12 12 13 12 12 11 12 12 11 11 11 11 11 11 10 10 10 10
11 12 11 12 12 14 13 15 15 13 16 16 16 18 18 17 15 14 14 14 14 14 13 13 12 12 12 12 13 13 12 12 12 12 12 11 11 11 11 11 11 10 10 10
8 10 11 11 13 13 14 14 14 15 17 15 15 17 21 17 16 16 15 15 15 14 14 13 13 14 14 14 13 13 13 12 12 12 12 12 11 11 10 11 11 10 10 10
10 12 12 12 13 14 12 13 13 13 14 13 17 17 20 17 18 18 17 16 15 15 14 14 14 14 14 14 14 13 13 13 12 12 12 12 12 11 11 11 10 10 10 10
10 10 11 12 12 11 13 15 12 13 12 14 13 15 20 19 20 21 19 17 17 15 14 14 13 13 13 13 14 13 13 13 13 12 12 12 12 12 11 11 11 10 10 10
8 7 11 12 13 13 13 16 14 13 13 15 11 14 18 20 18 17 18 19 17 15 14 14 13 15 15 15 15 14 13 13 13 12 12 12 12 12 12 11 11 10 10 10
8 9 11 13 14 14 13 13 16 12 11 15 16 15 16 15 14 14 14 14 15 16 16 17 15 15 16 16 15 15 14 13 13 13 13 12 12 12 11 11 11 11 10 10
7 8 11 12 13 13 14 15 13 13 12 14 13 16 17 15 16 15 14 14 14 15 16 16 15 15 16 16 16 15 15 14 14 13 13 12 12 12 11 11 11 11 10 10
6 10 8 11 12 13 13 13 14 16 13 15 15 16 16 18 17 18 17 16 15 14 15 15 16 16 16 15 15 15 15 14 14 14 13 13 12 12 11 11 11 11 11 10
6 9 10 10 11 13 15 15 15 14 12 11 14 17 13 14 14 14 16 14 13 15 15 15 14 14 15 15 15 15 15 15 14 14 13 13 12 12 12 11 12 11 11 11
3 9 8 7 9 11 12 14 15 16 14 14 14 17 13 12 13 13 13 13 13 14 15 15 14 15 15 15 15 16 15 15 15 14 13 13 13 12 12 12 12 11 11 11
3 8 11 12 12 13 12 13 14 15 14 15 15 16 17 16 16 14 13 13 13 13 14 15 15 15 15 16 16 16 16 15 14 14 13 13 13 13 13 12 12 11 11 11
2 7 8 9 9 12 13 13 13 13 14 14 16 14 16 17 18 14 14 13 12 13 14 15 15 16 16 15 15 14 14 14 14 13 12 12 12 12 12 12 11 11 10 10
1 5 7 8 9 10 11 12 13 13 14 14 14 14 13 14 14 14 13 13 14 14 15 16 17 17 17 16 15 14 13 13 12 12 12 11 11 12 11 11 10 10 10 10
-0 1 5 8 7 9 9 9 12 12 4 4 12 7 3 6 4 4 4 7 9 9 9 11 13 14 15 16 15 14 12 11 10 10 10 10 11 10 11 11 10 10 10 10
-1 0 3 7 7 8 4 1 4 1 -2 -2 -0 1 -0 -1 -1 -0 -0 -1 -0 1 4 6 9 11 12 13 13 12 10 9 9 9 9 9 9 10 10 10 10 9 9 8
-1 0 2 6 8 7 3 -3 -4 -2 -3 -4 -4 -2 -3 -4 0 4 2 0 -1 -1 2 4 7 10 11 13 12 11 9 8 8 8 9 9 9 8 8 8 8 9 8 5
0 0 1 2 6 8 -3 -5 -6 -4 1 -5 -6 -5 -6 -4 4 10 2 -2 1 2 3 5 6 7 9 11 10 8 8 8 7 8 8 8 7 6 5 6 6 6 5 4
-1 -2 1 2 4 -1 -6 -6 -6 1 -2 -7 -8 -8 -8 -6 -6 -6 -5 -4 -2 0 2 4 6 7 7 8 9 8 8 7 7 7 6 5 4 5 5 5 5 5 3 2
-3 -3 -1 -1 2 3 -7 -4 -3 -8 -9 -9 -9 -9 -10 -8 -8 -7 -6 -5 -4 -1 1 3 3 5 6 6 6 6 6 6 6 5 4 4 4 5 4 4 3 1 1 0
-3 -8 -5 -5 -2 -7 -8 -9 -10 -11 -11 -11 -11 -11 -10 -10 -9 -8 -7 -6 -5 -3 -2 -1 0 1 3 3 4 4 3 4 4 3 3 4 4 3 3 2 2 0 -1 -1
-9 -11 -8 -8 -8 -9 -9 -10 -10 -11 -12 -12 -12 -12 -12 -11 -10 -9 -7 -7 -6 -4 -3 -2 -2 -1 0 2 2 2 3 3 3 3 3 3 3 2 1 0 0 -1 -2 -2
-9 -11 -10 -9 -9 -9 -9 -9 -11 -13 -13 -13 -13 -13 -13 -12 -11 -10 -9 -8 -7 -6 -3 -3 -3 -2 -1 -1 0 1 1 2 3 3 3 2 1 -0 -1 -2 -2 -2 -1 -0
-11 -10 -7 -5 -11 -13 -11 -12 -13 -14 -14 -15 -15 -13 -13 -12 -12 -10 -9 -8 -8 -6 -5 -3 -4 -3 -2 -2 -1 -1 -0 1 1 2 1 0 -1 -2 -2 -2 -2 -2 -1 -2

GFSCGP_850_temp_321.txt.gz
Temp
10 11 12 12 16 18 17 18 18 20 19 18 19 21 19 19 20 21 20 19 17 17 16 16 16 15 14 13 12 13 13 12 12 12 11 11 12 11 11 11 11 10 10 10
10 11 14 14 16 16 18 17 18 17 16 18 20 21 20 19 20 21 20 19 17 17 16 16 15 15 14 13 12 12 12 12 12 12 11 12 12 12 11 11 10 10 10 10
10 14 15 14 14 15 16 17 18 17 15 17 20 20 18 18 19 20 20 19 16 15 16 16 15 15 14 14 13 13 13 13 12 12 11 12 12 11 11 11 11 11 10 10
12 15 14 14 12 16 15 18 18 17 16 17 19 18 19 18 17 19 19 18 17 15 15 16 15 14 14 13 13 13 13 12 12 11 12 12 11 11 11 11 11 11 10 10
9 13 12 13 13 16 15 16 16 16 17 18 17 17 21 20 17 17 18 18 18 16 15 15 14 14 14 13 13 13 12 12 12 12 12 12 11 11 11 11 11 11 10 10
10 14 13 14 15 15 15 15 15 16 16 13 18 18 20 21 20 19 18 18 18 18 17 16 15 14 13 13 13 13 12 12 12 12 12 12 12 11 11 11 11 11 10 10
11 12 13 14 13 13 15 15 13 13 12 14 18 18 20 23 22 22 21 19 18 17 17 16 16 14 14 13 13 13 13 12 12 12 12 12 12 12 12 11 11 11 10 10
9 8 12 14 14 13 15 16 14 13 14 15 14 16 19 22 22 22 22 20 19 17 17 17 16 15 14 13 13 13 13 12 12 12 12 12 11 11 12 11 11 11 11 10
9 9 13 14 15 15 14 15 18 16 15 16 17 17 18 20 18 18 20 20 19 18 17 17 16 15 14 13 13 14 13 12 12 12 12 11 11 12 12 12 12 11 11 10
6 8 12 13 15 15 15 17 14 15 13 15 17 17 17 19 18 17 17 17 17 18 17 16 16 15 14 13 13 13 14 14 13 12 12 12 12 13 12 12 12 12 11 11
4 11 9 13 13 13 13 15 15 16 16 15 15 17 20 20 19 19 18 17 16 17 16 16 15 15 14 13 13 13 13 12 13 12 12 12 12 13 12 12 12 11 11 10
4 7 10 10 13 15 15 15 16 15 15 14 14 17 16 16 17 18 20 19 18 16 15 14 15 15 14 13 13 13 13 13 13 13 12 12 12 12 12 12 12 11 11 10
3 9 9 8 10 12 13 15 17 17 17 15 15 17 15 15 15 15 16 14 13 13 14 15 16 15 14 13 12 12 12 14 13 12 12 12 11 11 11 12 12 11 10 11
2 6 11 12 12 14 12 14 16 16 15 16 16 17 17 17 17 16 15 13 13 11 12 12 14 13 13 12 12 11 11 13 14 13 11 11 11 11 11 12 12 11 11 12
2 6 8 11 12 14 13 13 14 15 16 16 17 17 18 8 12 8 8 12 12 11 10 9 9 9 9 9 10 11 10 10 13 12 11 11 11 11 11 11 12 12 12 12
1 5 6 9 11 12 13 14 14 14 15 15 16 16 6 7 5 4 4 5 5 5 4 5 7 8 9 10 10 9 10 11 11 10 10 11 11 12 11 12 13 12 12 12
1 2 5 8 10 10 9 2 5 11 3 3 11 7 3 3 2 1 1 0 1 1 1 2 3 5 6 7 9 11 11 11 11 10 9 9 10 11 11 12 12 12 11 11
-0 1 3 7 7 8 1 1 2 1 -1 -1 0 0 -0 -1 -2 -1 -1 -3 -2 -2 -1 1 3 6 7 7 7 9 10 10 10 10 9 8 9 9 10 10 11 11 10 10
0 1 3 5 8 3 1 -2 -3 -2 -2 -3 -3 -2 -3 -4 -1 1 -2 -4 -4 -3 -3 -1 1 4 6 7 7 8 8 8 9 9 8 7 9 9 10 10 10 10 10 10
2 1 2 4 6 6 -1 -4 -4 -4 1 -4 -5 -4 -5 -5 2 3 -2 -4 -5 -4 -4 -3 0 3 4 5 6 6 7 7 7 7 7 7 8 9 9 9 9 9 8 8
1 0 2 3 4 -2 -5 -6 -5 0 -2 -6 -7 -6 -7 -6 -6 -6 -7 -6 -6 -5 -4 -3 -2 0 2 4 4 5 5 6 6 6 7 7 7 7 7 7 7 7 6 5
-2 -2 2 2 3 2 -6 -4 -2 -8 -8 -8 -8 -9 -9 -8 -8 -8 -7 -7 -6 -6 -5 -4 -2 -1 1 2 3 3 3 4 4 5 5 6 6 6 6 6 5 4 5 5
-2 -5 -3 -4 -2 -5 -6 -7 -9 -9 -9 -9 -10 -10 -10 -10 -9 -9 -9 -8 -7 -7 -6 -5 -4 -2 -1 -1 -0 1 2 2 3 3 3 4 4 5 4 4 4 4 3 2
-7 -10 -6 -6 -6 -6 -7 -8 -9 -9 -11 -11 -11 -11 -11 -11 -11 -10 -9 -9 -9 -8 -7 -6 -5 -3 -2 -2 -1 -1 -1 -0 0 1 2 3 3 3 3 3 2 2 1 0
-5 -8 -5 -5 -7 -7 -8 -8 -9 -11 -12 -12 -12 -13 -12 -12 -11 -11 -11 -10 -10 -9 -8 -7 -7 -6 -4 -3 -2 -2 -1 -1 -0 1 2 3 3 3 3 1 1 0 0 0
-7 -4 -3 -1 -7 -9 -7 -10 -11 -12 -13 -14 -14 -14 -13 -13 -13 -12 -12 -11 -10 -10 -9 -8 -6 -6 -5 -4 -3 -3 -3 -2 -1 -0 1 1 2 2 0 -0 -2 -2 -2 -2

GFSCGP_850_temp_324.txt.gz
Temp
10 10 10 12 14 15 15 15 15 16 16 16 15 16 17 18 19 18 18 16 15 15 15 16 15 15 15 14 12 12 12 12 12 12 12 12 12 12 12 12 11 10 10 10
9 9 12 13 14 14 15 15 15 16 16 16 16 16 17 17 18 19 18 17 17 17 17 16 16 15 15 14 13 12 12 12 12 12 12 12 12 12 12 11 11 11 10 10
9 11 13 13 12 14 15 15 15 13 15 15 17 16 16 17 19 20 19 18 17 17 16 16 16 15 15 14 13 12 12 12 12 12 12 12 12 12 12 11 10 10 10 10
10 12 13 12 12 13 14 16 16 13 13 11 15 13 15 15 16 17 19 19 18 17 16 16 16 15 15 14 13 13 13 13 13 12 12 12 13 12 12 11 10 10 11 10
9 11 12 12 12 13 15 16 14 14 13 15 15 13 15 15 14 15 17 18 17 17 16 16 15 15 14 14 14 13 13 13 13 12 12 12 12 12 12 11 11 10 11 10
10 13 14 13 13 14 14 14 13 13 12 9 14 13 14 15 15 16 17 19 17 16 16 16 15 15 14 14 13 13 13 13 13 12 12 12 12 12 11 11 11 11 10 11
11 11 13 13 10 11 14 13 9 9 8 9 14 13 15 18 17 17 16 18 18 16 15 15 15 15 14 14 13 13 13 13 13 12 12 12 12 12 11 11 11 11 11 11
8 8 12 13 10 10 13 13 8 8 8 10 14 11 15 18 19 19 18 17 18 18 16 15 15 15 14 14 14 13 13 13 12 12 12 12 12 12 12 12 11 11 11 11
9 8 12 13 13 13 12 12 15 13 14 11 11 16 16 17 16 18 18 18 18 18 17 17 16 15 14 14 14 14 14 13 12 12 12 12 12 12 12 12 11 11 11 11
6 8 10 12 13 14 14 15 12 12 10 12 11 13 13 15 15 16 16 17 18 18 17 17 16 16 14 14 13 13 13 13 13 12 12 12 12 12 12 11 11 11 11 11
4 9 8 12 12 12 11 13 13 14 12 10 11 12 15 15 15 14 13 17 18 18 17 17 17 16 15 14 14 13 13 13 13 13 12 13 13 12 12 12 12 12 12 12
3 5 7 9 12 13 13 13 13 10 12 11 10 13 12 12 12 13 14 16 16 17 17 17 16 16 15 14 14 14 13 13 13 13 13 13 12 12 12 12 12 12 12 12
3 7 8 7 10 10 11 13 14 14 14 12 9 12 10 11 8 8 11 12 12 12 13 13 14 15 14 14 14 13 13 13 12 12 12 12 12 12 12 13 13 12 12 12
2 5 8 9 10 11 10 12 13 13 11 12 13 11 6 6 5 5 5 5 6 6 7 8 9 10 11 12 13 12 12 12 12 12 12 12 11 11 12 12 13 12 12 12
2 5 6 7 10 12 11 11 12 12 13 12 14 9 5 3 3 2 2 2 2 2 3 5 5 6 7 8 10 11 11 11 11 11 11 11 11 11 11 11 11 11 11 12
1 4 4 6 10 12 11 9 11 13 13 13 13 3 2 1 1 0 -0 -1 -1 -1 -1 1 3 5 6 6 7 7 9 10 10 10 11 11 10 11 11 11 11 10 10 11
-0 0 3 7 7 9 7 0 2 5 1 2 7 -0 -1 -1 -1 -1 -2 -3 -3 -3 -2 -1 0 2 4 5 6 6 6 8 8 9 9 9 10 10 10 10 11 10 10 11
-1 0 2 5 6 7 -0 -1 0 -1 -2 -2 -2 -2 -3 -3 -4 -3 -4 -5 -5 -4 -3 -1 0 2 4 5 6 5 6 6 7 7 8 7 8 8 9 10 10 10 10 11
-1 -0 1 4 5 0 0 -3 -4 -3 -3 -4 -5 -4 -5 -5 -2 -4 -5 -6 -6 -5 -4 -3 -1 0 3 4 5 5 6 6 5 6 8 7 7 7 8 9 9 10 10 10
3 0 -0 3 4 4 -3 -5 -5 -4 -0 -6 -6 -6 -6 -5 1 -1 -4 -6 -6 -6 -5 -4 -3 -0 1 3 4 5 6 5 5 4 5 5 5 6 6 7 8 9 9 9
-2 -4 0 1 1 -2 -5 -5 -5 -0 -3 -7 -7 -7 -8 -7 -7 -8 -7 -7 -7 -6 -6 -6 -5 -3 0 1 1 3 3 4 4 4 4 5 5 5 6 7 8 8 8 8
-4 -3 -1 -1 1 0 -5 -5 -4 -7 -7 -8 -9 -9 -9 -9 -9 -9 -9 -8 -7 -6 -5 -5 -6 -5 -2 -0 -0 0 1 2 2 2 3 3 3 4 6 6 7 7 6 6
-6 -8 -4 -3 -2 -5 -5 -6 -8 -9 -9 -9 -10 -10 -10 -11 -10 -10 -10 -9 -8 -7 -7 -6 -6 -5 -4 -3 -2 -1 0 -0 -0 1 2 2 2 3 4 5 6 6 5 4
-10 -10 -11 -8 -7 -6 -6 -7 -8 -9 -10 -10 -11 -11 -11 -12 -11 -11 -10 -10 -9 -8 -7 -7 -7 -6 -4 -3 -3 -3 -2 -1 -1 -1 0 1 1 2 3 3 3 4 4 4
-8 -10 -9 -10 -9 -7 -7 -8 -8 -9 -10 -11 -11 -11 -11 -12 -12 -12 -11 -10 -10 -10 -8 -8 -8 -8 -6 -4 -4 -3 -3 -3 -2 -2 -1 -1 0 1 2 2 3 3 3 3
-8 -9 -8 -6 -7 -8 -7 -8 -9 -9 -11 -11 -12 -11 -11 -12 -12 -11 -11 -11 -11 -10 -10 -9 -9 -9 -7 -6 -4 -3 -3 -4 -3 -2 -2 -1 -1 -0 1 1 1 -0 0 0

GFSCGP_850_temp_330.txt.gz
Temp
8 9 9 10 12 13 12 11 12 12 13 14 14 11 12 12 12 12 11 12 13 13 13 13 14 14 14 14 13 13 12 12 12 11 12 12 11 11 11 11 11 10 10 10
9 9 10 11 11 12 12 11 12 13 14 13 13 13 12 12 12 12 11 12 12 13 13 13 13 13 13 14 13 13 13 13 12 12 12 11 11 11 11 11 11 11 10 10
8 9 10 12 10 11 11 12 11 12 13 12 13 14 13 13 12 12 12 12 12 13 13 13 13 13 13 13 13 13 13 13 13 12 12 11 11 11 11 11 11 11 11 10
9 10 11 11 11 12 11 11 12 13 13 12 13 10 13 12 12 12 11 12 12 12 12 12 13 13 13 13 13 13 13 13 12 12 11 11 11 11 11 11 11 11 11 10
8 10 10 10 10 12 11 11 12 13 11 11 13 11 11 12 12 11 11 12 12 13 12 12 13 13 13 13 13 13 12 12 12 12 12 11 11 12 12 11 11 11 11 10
8 11 10 10 10 11 11 11 11 10 10 10 11 11 12 12 15 12 12 13 13 13 13 12 13 13 13 13 13 13 13 13 12 11 12 11 11 12 12 11 11 11 11 10
8 8 11 11 11 11 12 13 9 9 9 10 10 12 11 12 14 15 13 13 14 15 14 14 13 13 14 14 14 14 13 13 12 11 11 11 11 11 12 12 11 11 11 11
7 7 10 11 10 10 12 10 10 8 8 9 9 10 12 13 14 17 17 17 15 15 15 15 15 14 14 14 14 14 13 13 13 12 11 11 12 11 12 12 12 11 11 11
7 8 9 11 11 12 12 11 10 8 9 10 10 12 14 12 12 14 15 15 14 14 15 15 16 15 15 15 15 14 14 14 13 13 12 12 11 11 12 12 12 12 11 11
5 6 9 11 13 13 12 12 10 8 9 11 9 11 11 7 6 9 11 13 15 14 14 15 16 16 15 15 15 14 14 14 14 13 13 13 12 12 12 12 12 12 11 11
4 7 8 10 9 10 11 11 10 10 8 8 8 9 6 5 4 5 4 3 7 11 12 13 13 14 14 14 15 14 14 14 14 13 13 13 13 12 12 12 12 12 12 11
3 6 7 9 8 10 10 10 9 9 11 8 7 7 3 3 2 2 1 1 2 5 8 10 12 12 13 13 13 13 13 14 14 13 13 13 13 12 12 12 12 12 12 11
2 5 6 8 9 10 10 10 10 10 9 10 8 7 3 2 1 -0 -0 -0 0 2 4 6 8 10 10 11 11 11 12 12 11 12 13 13 12 12 12 12 12 12 12 12
2 6 6 7 8 9 9 10 11 11 9 10 9 4 3 1 0 -1 -2 -1 -1 -1 1 3 5 6 7 8 9 9 10 11 11 11 11 12 13 12 12 12 12 12 12 11
1 4 5 6 5 6 9 10 9 10 11 10 9 6 1 -0 -1 -2 -2 -2 -2 -1 0 1 2 3 5 6 7 8 9 9 10 11 12 12 12 12 13 13 12 12 11 11
-1 3 4 5 5 6 5 4 9 9 7 6 4 1 -2 -2 -2 -3 -4 -4 -4 -3 -2 -0 1 2 3 5 6 7 8 8 9 10 11 11 11 12 11 11 11 12 12 12
-5 -1 1 4 5 5 6 0 0 0 -2 0 5 0 -3 -3 -3 -5 -5 -5 -5 -4 -3 -2 -1 0 1 2 4 6 7 8 9 10 11 11 11 11 11 11 11 11 11 11
-3 -4 2 1 4 6 0 -2 -2 -2 -3 -3 -4 -4 -4 -5 -5 -6 -6 -5 -5 -4 -4 -2 -1 -0 0 1 3 4 5 5 6 7 8 9 9 10 10 10 10 9 9 10
-2 -3 -2 1 2 -0 -1 -2 -2 -1 -1 -5 -5 -5 -6 -6 -6 -6 -6 -6 -5 -5 -4 -3 -3 -1 -1 -0 1 3 4 4 5 6 7 7 8 9 9 9 9 10 9 9
-0 -1 -3 -0 2 2 -2 -5 -5 -4 2 -6 -5 -6 -7 -5 -3 -5 -6 -5 -5 -5 -5 -4 -2 -2 -2 -1 -0 1 2 3 4 5 6 6 6 7 8 8 8 8 8 9
-5 -4 -2 -4 -1 -2 -5 -5 -5 2 -0 -7 -7 -8 -8 -5 -7 -7 -6 -5 -5 -5 -4 -4 -3 -3 -3 -2 -1 -1 -0 1 2 3 3 4 4 5 5 4 3 4 5 6
-6 -5 -4 -4 -2 0 -5 -5 -2 -6 -8 -8 -8 -8 -9 -9 -8 -8 -8 -7 -7 -6 -5 -4 -3 -2 -3 -3 -3 -2 -1 -1 0 1 2 2 2 2 1 1 2 2 3 5
-8 -7 -6 -3 -2 -6 -5 -5 -6 -6 -7 -8 -8 -9 -9 -9 -9 -9 -9 -9 -9 -8 -8 -9 -8 -5 -4 -4 -5 -3 -2 -1 -0 1 1 1 2 1 1 0 0 1 2 3
-11 -12 -11 -8 -9 -7 -5 -6 -6 -6 -6 -7 -8 -8 -9 -9 -9 -9 -8 -8 -8 -8 -8 -8 -8 -8 -6 -6 -5 -4 -3 -3 -2 -1 -0 0 1 1 0 -1 -1 -0 1 2
-8 -11 -12 -11 -12 -8 -7 -6 -5 -7 -7 -7 -8 -8 -9 -9 -9 -9 -9 -9 -8 -8 -8 -8 -9 -8 -6 -7 -7 -6 -6 -5 -4 -3 -2 -2 -1 -1 -1 -2 -2 -1 -1 0
-10 -10 -7 -6 -5 -5 -5 -5 -6 -7 -7 -7 -8 -9 -9 -9 -9 -9 -9 -9 -9 -8 -8 -8 -8 -8 -7 -7 -7 -6 -7 -8 -7 -6 -4 -3 -2 -2 -2 -2 -2 -1 -1 -0

GFSCGP_850_temp_333.txt.gz
Temp
4 6 8 10 12 12 10 12 12 11 12 13 13 11 13 12 12 12 12 12 12 12 13 14 14 14 14 14 13 13 12 12 12 12 12 12 12 11 11 11 11 10 10 10
4 6 9 12 11 11 10 11 11 11 13 12 12 11 12 12 13 12 12 12 13 13 13 13 14 14 14 14 13 13 12 12 13 13 12 12 12 11 11 11 11 11 10 10
6 7 10 11 10 11 10 12 11 11 12 11 12 11 11 12 12 12 11 12 12 13 13 13 14 14 14 14 13 13 12 12 12 12 12 12 11 11 11 11 11 11 11 11
7 9 10 10 10 11 10 11 11 12 13 10 12 11 11 11 11 12 11 11 12 13 13 14 14 14 13 13 13 13 13 12 12 12 12 12 11 11 11 11 11 11 11 10
7 10 10 9 10 11 11 11 12 13 11 11 12 10 11 11 10 12 12 11 12 12 13 13 13 13 13 13 13 13 13 12 12 12 12 12 11 11 11 11 11 11 11 10
8 10 10 10 9 11 9 11 11 10 10 10 11 11 12 10 13 11 11 11 12 12 13 13 12 13 13 13 12 13 12 12 12 12 12 12 11 11 11 11 11 11 11 11
9 9 10 11 10 11 11 13 8 9 9 10 9 11 12 13 12 13 12 11 12 13 13 13 12 12 12 13 13 13 13 13 13 12 12 12 11 11 11 11 11 11 11 11
5 8 9 10 10 10 12 11 8 8 8 9 8 9 12 11 13 15 14 15 14 13 14 13 13 13 13 13 13 13 13 13 13 13 13 12 12 12 11 11 11 11 11 11
6 8 9 11 11 12 11 11 10 8 8 9 8 11 12 8 7 7 10 13 13 13 13 14 15 14 14 13 14 13 13 13 13 13 13 12 12 11 11 11 11 11 11 11
5 6 8 10 12 11 11 10 9 7 8 10 8 10 11 8 5 5 3 2 7 11 11 12 12 13 13 14 14 14 14 14 14 13 13 13 12 12 11 11 11 11 11 11
3 7 8 10 9 9 10 10 9 8 7 7 8 8 6 5 3 2 1 0 1 4 8 10 11 11 11 12 12 13 13 14 14 14 13 13 13 13 12 12 11 11 11 11
3 5 6 8 8 9 10 10 8 9 9 6 7 9 2 1 1 1 -0 -1 -0 1 4 6 8 9 10 11 11 11 12 12 12 12 13 13 13 13 13 12 12 12 12 11
2 5 4 6 9 9 10 9 10 8 7 7 7 8 1 1 -0 -1 -1 -1 -1 0 2 3 5 7 8 9 10 10 11 11 11 12 12 12 12 13 13 13 12 12 12 11
2 5 6 7 8 7 8 9 10 9 8 8 8 5 1 0 -0 -2 -2 -2 -1 -1 -0 1 3 3 5 6 7 8 9 10 10 11 11 11 12 12 12 12 12 12 12 12
-1 2 5 5 5 6 7 9 9 9 10 9 10 6 2 -1 -2 -3 -3 -2 -2 -2 -1 -0 1 2 2 4 5 6 7 8 9 10 11 11 11 11 11 11 11 11 12 12
-3 -0 2 6 5 5 7 6 7 9 8 6 5 3 -2 -2 -2 -3 -4 -3 -3 -3 -3 -1 -0 1 2 3 4 5 6 7 7 8 9 10 11 11 11 11 12 12 11 11
-5 -5 -0 2 4 5 5 4 3 2 -1 3 5 3 -3 -3 -3 -4 -4 -4 -4 -4 -3 -2 -1 -0 1 2 3 4 5 6 7 8 8 9 10 10 10 10 11 11 11 11
-2 -4 -0 0 4 6 2 -3 -2 -1 -2 -3 -3 -4 -4 -4 -4 -5 -5 -5 -5 -4 -3 -3 -2 -1 -1 0 2 2 3 4 5 6 7 7 8 9 10 10 10 10 10 10
-3 -3 0 1 -1 1 -1 -2 -2 -0 2 -4 -4 -5 -6 -5 -6 -7 -6 -6 -5 -5 -4 -4 -3 -2 -2 -0 1 2 2 3 4 5 5 6 6 7 7 8 8 8 9 9
-2 -2 -4 -4 -1 1 -1 -5 -4 -4 2 -5 -5 -6 -6 -6 -3 -6 -7 -6 -5 -5 -5 -4 -3 -3 -2 -1 -0 1 2 3 3 4 4 4 4 5 6 6 6 6 7 7
-7 -9 -4 -1 -2 -1 -6 -5 -4 2 2 -6 -5 -6 -6 -5 -7 -7 -7 -6 -6 -6 -5 -4 -4 -3 -3 -2 -2 -1 -1 0 1 2 3 3 3 4 4 5 5 6 5 5
-5 -5 -5 -7 -3 2 -5 -6 -3 -5 -6 -6 -7 -7 -7 -6 -6 -6 -6 -6 -6 -5 -4 -4 -4 -4 -4 -3 -2 -2 -2 -2 -1 -0 1 1 2 2 3 3 4 4 3 3
-8 -6 -5 -3 -2 -5 -5 -5 -4 -4 -5 -6 -5 -6 -6 -7 -7 -6 -6 -5 -4 -5 -4 -4 -3 -2 -3 -3 -3 -2 -2 -2 -1 -1 -0 0 1 1 1 1 2 3 2 1
-11 -13 -10 -8 -9 -7 -5 -5 -5 -4 -4 -5 -6 -6 -6 -6 -7 -7 -7 -7 -7 -8 -7 -7 -6 -5 -4 -4 -3 -3 -2 -3 -2 -2 -1 -1 -1 -0 -0 0 0 -0 -1 -1
-8 -12 -11 -10 -10 -8 -6 -5 -4 -6 -6 -6 -7 -7 -7 -8 -8 -8 -8 -8 -8 -8 -8 -7 -7 -7 -7 -7 -6 -6 -5 -5 -4 -3 -3 -3 -3 -2 -1 -1 -1 -1 -1 -2
-11 -10 -7 -4 -3 -3 -2 -2 -4 -5 -5 -6 -6 -7 -7 -8 -8 -9 -9 -9 -9 -8 -8 -8 -8 -8 -7 -7 -7 -8 -8 -7 -7 -5 -5 -4 -3 -3 -3 -3 -2 -1 -1 -2